Location: Unspecified
(0.0000°N, 0.0000°E)
Time: 08:56:47
(UTC+00:00)

Explorer 11/Cluster Stage 4 - Pass Details

Date: 21 July 2020
Orbit: 467 x 1259 km, 28.8° (Epoch: 03 August)

Event Time Altitude Azimuth Distance (km) Brightness Sun altitude
Rises 16:52:10 0° 276° (W) 3,807 11.6 17.4°
Reaches altitude 10° 16:55:07 10° 266° (W) 2,962 10.9 16.7°
Maximum altitude 17:01:36 31° 206° (SSW) 1,963 8.8 15.2°
Drops below altitude 10° 17:08:40 10° 147° (SSE) 3,230 9.3 13.5°
Sets 17:12:02 0° 138° (SE) 4,199 9.8 12.8°
